Flag for Canada Weather past 2 weeks in Prince George, British Columbia, Canada

Now
70 °F

Sunny.


Feels Like: 70 °F
Forecast: 57 / 81 °F
Wind: 6 mph from North

Location: Prince George

Current Time: Jul 30, 2014 at 11:38:25 AM

Latest Report: Jul 30, 2014 at 11:00 AM


Visibility: 9 mi

Pressure: 30.16 "Hg

Humidity: 50%

Dew point: 50 °F

Location of Prince GeorgeLocation

Historic Weather in Prince George — Graph

°F

Prince George temperature yesterday

Maximum temperature yesterday: 84 °F (at 4:00 PM)
Minimum temperature yesterday: 52 °F (at 2:00 AM)
Average temperature yesterday: 69 °F

Past Weeks' High & Low Weather Summary

 TemperatureHumidityPressure
High90 °F (Jul 15, 3:00 PM)100% (Jul 19, 2:00 AM)30.25 "Hg (Jul 19, 2:00 AM)
Low45 °F (Jul 26, 4:00 AM)17% (Jul 16, 4:00 PM)29.71 "Hg (Jul 19, 12:00 PM)
Average63 °F64%29.96 "Hg
* Reported Jul 15 10:00 AM — Jul 30 10:00 AM, Prince George, Weather by CustomWeather, © 2014

Note: Actual official high and low records may vary slightly from our data, if they occured in-between our weather recording intervals... More about our weather records

Advertising

Prince George weather history for previous 24 hours

 ConditionsComfort  
Time TempWeatherWind HumidityBarometerVisibility
10:00 AM
Jul 30
68 °FPartly sunny.5 mph53%30.16 "Hg9 mi
9:00 AM66 °FScattered clouds.2 mph56%30.16 "Hg9 mi
8:00 AM64 °FPassing clouds.2 mph64%30.15 "Hg9 mi
7:00 AM55 °FSunny.No wind82%30.16 "Hg9 mi
6:00 AM50 °FClear.2 mph88%30.15 "Hg9 mi
5:00 AM50 °FPassing clouds.2 mph88%30.15 "Hg9 mi
4:00 AM54 °FClear.2 mph77%30.13 "Hg9 mi
3:00 AM61 °FClear.5 mph63%30.11 "Hg9 mi
2:00 AM61 °FClear.7 mph63%30.10 "Hg9 mi
1:00 AM64 °FClear.7 mph60%30.09 "Hg9 mi
12:00 AM68 °FClear.8 mph53%30.07 "Hg9 mi
11:00 PM
Jul 29
70 °FPassing clouds.9 mph50%30.03 "Hg9 mi
10:00 PM73 °FSunny.12 mph44%30.02 "Hg9 mi
9:46 PM73 °FSunny.13 mph44%30.02 "Hg9 mi
9:00 PM70 °FSunny.No wind60%30.01 "Hg9 mi
8:00 PM75 °FSunny.No wind41%30.01 "Hg9 mi
7:00 PM77 °FSunny.3 mph39%30.02 "Hg9 mi
6:00 PM81 °FSunny.7 mph24%30.04 "Hg9 mi
5:00 PM82 °FSunny.8 mph25%30.04 "Hg9 mi
4:00 PM84 °FSunny.6 mph22%30.07 "Hg9 mi
3:00 PM82 °FSunny.7 mph25%30.08 "Hg9 mi
2:00 PM82 °FSunny.6 mph25%30.10 "Hg9 mi
1:00 PM79 °FSunny.2 mph32%30.11 "Hg9 mi
12:00 PM77 °FSunny.3 mph34%30.12 "Hg9 mi
11:00 AM75 °FSunny.3 mph34%30.13 "Hg9 mi
Weather by CustomWeather, © 2014

See weather overviewHow to use our weather pages